Flag for U.S.A. Weather past 2 weeks in Bristol, Tennessee, U.S.A.

Now
75 °F

Sunny.


Feels Like: 74 °F
Forecast: 69 / 86 °F
Wind: No wind

Location: Abingdon-Southwest Abingdon

Current Time: Jul 27, 2015 at 10:01:37 PM

Latest Report: Jul 27, 2015 at 9:15 PM


Visibility: 10 mi

Pressure: 30.06 "Hg (28.35 "Hg at 510m altitude)

Humidity: 85%

Dew point: 70 °F

Location of BristolLocation

Historic Weather in Bristol — Graph

°F

Bristol temperature yesterday

Maximum temperature yesterday: 87 °F (at 4:15 PM)
Minimum temperature yesterday: 67 °F (at 5:15 AM)
Average temperature yesterday: 77 °F

Past Weeks' High & Low Weather Summary

 TemperatureHumidityPressure
High88 °F (Jul 18, 4:55 PM)100% (Jul 13, 1:55 AM)30.15 "Hg (Jul 13, 1:55 AM)
Low64 °F (Jul 16, 6:35 AM)36% (Jul 25, 3:15 PM)29.77 "Hg (Jul 14, 5:15 PM)
Average75 °F80%30.01 "Hg
* Reported Jul 12 8:15 PM — Jul 27 8:55 PM, Bristol, Weather by CustomWeather, © 2015

Note: Actual official high and low records may vary slightly from our data, if they occured in-between our weather recording intervals... More about our weather records

Advertising

Bristol weather history for previous 24 hours

 ConditionsComfort  
Time TempWeatherWind HumidityBarometerVisibility
8:55 PM
Mon, Jul 27
76 °FSunny.No wind80%30.05 "Hg10 mi
8:35 PM78 °FSunny.No wind76%30.05 "Hg10 mi
8:15 PM79 °FSunny.No wind75%30.05 "Hg10 mi
7:55 PM80 °FSunny.No wind72%30.04 "Hg10 mi
7:35 PM81 °FSunny.No wind65%30.05 "Hg10 mi
7:15 PM82 °FSunny.3 mph60%30.04 "Hg10 mi
6:55 PM83 °FSunny.No wind60%30.04 "Hg10 mi
6:15 PM83 °FScattered clouds.No wind56%30.05 "Hg10 mi
5:55 PM83 °FPartly sunny.No wind58%30.05 "Hg10 mi
5:15 PM82 °FScattered clouds.3 mph59%30.05 "Hg10 mi
4:55 PM82 °FOvercast.3 mph63%30.05 "Hg10 mi
4:15 PM81 °FOvercast.No wind68%30.06 "Hg10 mi
3:55 PM81 °FPartly sunny.3 mph70%30.07 "Hg10 mi
3:35 PM79 °FMore clouds than sun.No wind74%30.07 "Hg10 mi
3:15 PM79 °FMore clouds than sun.No wind75%30.08 "Hg10 mi
2:55 PM79 °FLight rain. Cloudy.No wind76%30.09 "Hg10 mi
2:35 PM79 °FLight rain. Cloudy.No wind80%30.09 "Hg10 mi
2:15 PM79 °FLight rain. Cloudy.5 mph81%30.09 "Hg10 mi
1:55 PM78 °FCloudy.No wind82%30.10 "Hg10 mi
1:35 PM77 °FDrizzle. Cloudy.6 mph86%30.10 "Hg10 mi
1:15 PM77 °FLight rain. Mostly cloudy.5 mph85%30.10 "Hg5 mi
12:55 PM80 °FLight rain. Mostly cloudy.No wind74%30.10 "Hg10 mi
12:35 PM81 °FCloudy.No wind69%30.11 "Hg10 mi
12:15 PM81 °FBroken clouds.5 mph69%30.11 "Hg10 mi
11:55 AM82 °FBroken clouds.5 mph68%30.11 "Hg10 mi
11:35 AM81 °FBroken clouds.5 mph69%30.11 "Hg10 mi
11:15 AM79 °FBroken clouds.3 mph72%30.11 "Hg10 mi
10:55 AM79 °FBroken clouds.5 mph73%30.10 "Hg10 mi
10:35 AM78 °FBroken clouds.6 mph74%30.10 "Hg10 mi
10:15 AM77 °FPartly sunny.No wind73%30.10 "Hg10 mi
9:55 AM76 °FPartly sunny.No wind75%30.10 "Hg10 mi
9:35 AM75 °FScattered clouds.No wind78%30.10 "Hg10 mi
9:15 AM74 °FScattered clouds.No wind81%30.10 "Hg10 mi
8:55 AM73 °FSunny.No wind84%30.09 "Hg10 mi
8:35 AM72 °FSunny.No wind88%30.09 "Hg10 mi
8:15 AM72 °FSunny.No wind89%30.09 "Hg10 mi
7:55 AM71 °FBroken clouds.No wind91%30.09 "Hg7 mi
7:35 AM71 °FScattered clouds.No wind91%30.08 "Hg10 mi
7:15 AM70 °FClear.No wind92%30.07 "Hg7 mi
6:55 AM70 °FClear.No wind92%30.07 "Hg7 mi
6:35 AM70 °FClear.No wind90%30.06 "Hg7 mi
6:15 AM71 °FClear.No wind88%30.06 "Hg10 mi
5:55 AM71 °FClear.No wind87%30.06 "Hg10 mi
5:35 AM72 °FPassing clouds.No wind86%30.06 "Hg10 mi
5:15 AM72 °FPassing clouds.No wind86%30.05 "Hg10 mi
4:55 AM72 °FClear.No wind83%30.05 "Hg10 mi
4:35 AM71 °FClear.No wind88%30.05 "Hg10 mi
4:15 AM71 °FClear.No wind88%30.05 "Hg10 mi
3:55 AM71 °FClear.No wind88%30.04 "Hg10 mi
3:35 AM71 °FClear.3 mph88%30.04 "Hg10 mi
3:15 AM70 °FClear.No wind90%30.05 "Hg10 mi
2:55 AM71 °FClear.No wind88%30.05 "Hg10 mi
2:35 AM71 °FClear.No wind87%30.06 "Hg10 mi
2:15 AM71 °FPassing clouds.No wind88%30.06 "Hg10 mi
1:55 AM71 °FClear.No wind88%30.06 "Hg10 mi
1:35 AM71 °FClear.No wind88%30.06 "Hg10 mi
1:15 AM71 °FClear.No wind87%30.06 "Hg10 mi
12:15 AM71 °FClear.No wind86%30.07 "Hg10 mi
11:55 PM
Sun, Jul 26
72 °FClear.No wind84%30.07 "Hg10 mi
11:15 PM73 °FClear.No wind82%30.07 "Hg10 mi
10:55 PM72 °FClear.No wind85%30.07 "Hg10 mi
10:35 PM73 °FClear.No wind83%30.07 "Hg10 mi
10:15 PM73 °FClear.No wind84%30.06 "Hg10 mi
Weather by CustomWeather, © 2015

See weather overviewHow to use our weather pages